When you browse on this site, cookies collect data to enhance your experience and personalize the content and advertising you see.
Visit our Privacy Policy to learn more. By continuing to use the site, you agree to this use of cookies and data.
  • In Hungary
  • List of Countries
  • For 7 days
  • Water Temperature
  • Satellite Maps
  • Weather Map
  • News
  • Weather Widgets
  • user-avatar
    Login

    Hourly Weather Ilebo

    Today, 20 January, Sunday

    Time Temperature Precipitation Wind Pressure Humidity
    00:00 +29°C° 0 mm 2 mps 722 mmHg 32%
    01:00 +28°C° 0 mm 1 mps 723 mmHg 26%
    02:00 +28°C° 0 mm 1 mps 723 mmHg 25%
    03:00 +28°C° 0 mm 1 mps 723 mmHg 23%
    04:00 +27°C° 0 mm 1 mps 723 mmHg 22%
    05:00 +28°C° 0 mm 1 mps 723 mmHg 22%
    06:00 +28°C° 0 mm 1 mps 723 mmHg 21%
    07:00 +29°C° 0 mm 1 mps 724 mmHg 21%
    08:00 +32°C° 0 mm 1 mps 724 mmHg 18%
    09:00 +35°C° 0 mm 1 mps 724 mmHg 16%
    10:00 +40°C° 0 mm 2 mps 724 mmHg 14%
    11:00 +41°C° 0 mm 2 mps 723 mmHg 13%
    12:00 +42°C° 0 mm 2 mps 723 mmHg 13%
    13:00 +43°C° 0 mm 2 mps 722 mmHg 12%
    14:00 +43°C° 0 mm 2 mps 721 mmHg 12%
    15:00 +42°C° 0 mm 2 mps 721 mmHg 12%
    16:00 +42°C° 0 mm 2 mps 720 mmHg 12%
    17:00 +39°C° 0 mm 1 mps 720 mmHg 14%
    18:00 +36°C° 0 mm 1 mps 721 mmHg 17%
    19:00 +33°C° 0 mm 1 mps 721 mmHg 19%
    20:00 +32°C° 0 mm 1 mps 721 mmHg 19%
    21:00 +32°C° 0 mm 1 mps 722 mmHg 19%
    22:00 +31°C° 0 mm 1 mps 722 mmHg 20%
    23:00 +31°C° 0 mm 1 mps 722 mmHg 20%

    Tomorrow, 21 January, Monday

    Time Temperature Precipitation Wind Pressure Humidity
    00:00 +30°C° 0 mm 1 mps 722 mmHg 20%
    01:00 +30°C° 0 mm 1 mps 722 mmHg 20%
    02:00 +29°C° 0 mm 1 mps 722 mmHg 23%
    03:00 +28°C° 0 mm 1 mps 722 mmHg 26%
    04:00 +27°C° 0 mm 1 mps 722 mmHg 28%
    05:00 +27°C° 0 mm 1 mps 723 mmHg 29%
    06:00 +28°C° 0 mm 1 mps 723 mmHg 29%
    07:00 +29°C° 0 mm 1 mps 724 mmHg 30%
    08:00 +32°C° 0 mm 2 mps 724 mmHg 28%
    09:00 +35°C° 0 mm 2 mps 724 mmHg 27%
    10:00 +38°C° 0 mm 3 mps 724 mmHg 25%
    11:00 +41°C° 0 mm 2 mps 724 mmHg 21%
    12:00 +43°C° 0 mm 2 mps 723 mmHg 18%
    13:00 +45°C° 0 mm 1 mps 722 mmHg 14%
    14:00 +44°C° 0 mm 1 mps 721 mmHg 14%
    15:00 +42°C° 0 mm 1 mps 721 mmHg 15%
    16:00 +41°C° 0 mm 1 mps 720 mmHg 16%
    17:00 +37°C° 0 mm 1 mps 720 mmHg 20%
    18:00 +35°C° 0 mm 1 mps 721 mmHg 25%
    19:00 +33°C° 0 mm 1 mps 721 mmHg 29%
    20:00 +32°C° 0 mm 2 mps 721 mmHg 33%
    21:00 +31°C° 0 mm 2 mps 721 mmHg 38%
    22:00 +30°C° 0 mm 2 mps 722 mmHg 42%
    23:00 +29°C° 0 mm 2 mps 721 mmHg 45%

    Day after tomorrow, 22 January, Tuesday

    Time Temperature Precipitation Wind Pressure Humidity
    00:00 +29°C° 0 mm 2 mps 721 mmHg 48%
    01:00 +28°C° 0 mm 1 mps 721 mmHg 51%
    02:00 +27°C° 0 mm 1 mps 721 mmHg 54%
    03:00 +27°C° 0 mm 1 mps 721 mmHg 58%
    04:00 +26°C° 0 mm 1 mps 721 mmHg 61%
    05:00 +27°C° 0 mm 1 mps 721 mmHg 59%
    06:00 +28°C° 0 mm 2 mps 722 mmHg 57%
    07:00 +28°C° 0 mm 2 mps 723 mmHg 54%
    08:00 +31°C° 0 mm 2 mps 723 mmHg 47%
    09:00 +35°C° 0 mm 3 mps 723 mmHg 40%
    10:00 +38°C° 0 mm 3 mps 724 mmHg 33%
    11:00 +40°C° 0 mm 2 mps 723 mmHg 27%
    12:00 +42°C° 0 mm 2 mps 722 mmHg 22%
    13:00 +44°C° 0 mm 1 mps 721 mmHg 16%
    14:00 +42°C° 0 mm 1 mps 720 mmHg 18%
    15:00 +41°C° 0 mm 1 mps 719 mmHg 19%
    16:00 +39°C° 0 mm 1 mps 719 mmHg 21%
    17:00 +36°C° 0 mm 1 mps 719 mmHg 24%
    18:00 +34°C° 0 mm 1 mps 719 mmHg 26%
    19:00 +33°C° 0 mm 1 mps 720 mmHg 29%
    20:00 +32°C° 0 mm 1 mps 720 mmHg 31%
    21:00 +31°C° 0 mm 1 mps 720 mmHg 33%
    22:00 +30°C° 0 mm 1 mps 721 mmHg 35%
    23:00 +30°C° 0 mm 1 mps 720 mmHg 35%

    23 January, Wednesday

    Time Temperature Precipitation Wind Pressure Humidity
    00:00 +30°C° 0 mm 1 mps 720 mmHg 36%
    01:00 +30°C° 0 mm 1 mps 720 mmHg 37%
    02:00 +29°C° 0 mm 1 mps 720 mmHg 38%
    03:00 +29°C° 0 mm 1 mps 720 mmHg 40%
    04:00 +28°C° 0 mm 1 mps 720 mmHg 41%
    05:00 +28°C° 0 mm 1 mps 720 mmHg 41%
    06:00 +29°C° 0 mm 1 mps 721 mmHg 42%
    07:00 +29°C° 0 mm 1 mps 722 mmHg 42%
    08:00 +31°C° 0 mm 2 mps 722 mmHg 39%
    09:00 +34°C° 0 mm 3 mps 723 mmHg 36%
    10:00 +36°C° 0 mm 3 mps 723 mmHg 33%
    11:00 +38°C° 0 mm 3 mps 722 mmHg 30%
    12:00 +39°C° 0 mm 3 mps 721 mmHg 27%
    13:00 +42°C° 0 mm 3 mps 721 mmHg 24%
    14:00 +40°C° 0 mm 3 mps 720 mmHg 24%
    15:00 +40°C° 0 mm 3 mps 719 mmHg 25%
    16:00 +39°C° 0 mm 3 mps 719 mmHg 25%
    17:00 +37°C° 0 mm 2 mps 719 mmHg 29%
    18:00 +36°C° 0 mm 2 mps 720 mmHg 33%
    19:00 +34°C° 0 mm 2 mps 720 mmHg 37%
    20:00 +32°C° 0 mm 1 mps 721 mmHg 39%
    21:00 +31°C° 0 mm 1 mps 721 mmHg 41%
    22:00 +31°C° 0 mm 1 mps 721 mmHg 42%
    23:00 +30°C° 0 mm 1 mps 721 mmHg 44%

    24 January, Thursday

    Time Temperature Precipitation Wind Pressure Humidity
    00:00 +30°C° 0 mm 2 mps 720 mmHg 46%
    01:00 +29°C° 0 mm 2 mps 720 mmHg 48%
    02:00 +28°C° 0 mm 2 mps 720 mmHg 54%
    03:00 +28°C° 0 mm 2 mps 720 mmHg 59%
    04:00 +27°C° 0 mm 2 mps 720 mmHg 64%
    05:00 +28°C° 0 mm 2 mps 721 mmHg 64%
    06:00 +28°C° 0 mm 2 mps 721 mmHg 65%
    07:00 +29°C° 0 mm 3 mps 722 mmHg 65%
    08:00 +31°C° 0 mm 3 mps 722 mmHg 55%
    09:00 +35°C° 0 mm 3 mps 722 mmHg 45%
    10:00 +38°C° 0 mm 3 mps 723 mmHg 35%
    11:00 +40°C° 0 mm 2 mps 722 mmHg 30%
    12:00 +42°C° 0 mm 2 mps 721 mmHg 25%
    13:00 +44°C° 0 mm 1 mps 720 mmHg 20%
    14:00 +42°C° 0 mm 1 mps 719 mmHg 23%
    15:00 +40°C° 0 mm 1 mps 719 mmHg 26%
    16:00 +37°C° 0 mm 1 mps 718 mmHg 29%
    17:00 +36°C° 0 mm 1 mps 719 mmHg 33%
    18:00 +34°C° 0 mm 1 mps 719 mmHg 36%
    19:00 +33°C° 0 mm 1 mps 720 mmHg 40%
    20:00 +32°C° 0 mm 1 mps 720 mmHg 42%
    21:00 +32°C° 0 mm 1 mps 720 mmHg 45%
    22:00 +31°C° 0 mm 1 mps 721 mmHg 48%
    23:00 +31°C° 0 mm 1 mps 721 mmHg 49%

    25 January, Friday

    Time Temperature Precipitation Wind Pressure Humidity
    00:00 +30°C° 0 mm 1 mps 720 mmHg 49%
    01:00 +30°C° 0 mm 1 mps 720 mmHg 50%
    02:00 +29°C° 0 mm 1 mps 720 mmHg 51%
    03:00 +29°C° 0 mm 1 mps 720 mmHg 53%
    04:00 +29°C° 0 mm 1 mps 720 mmHg 54%
    05:00 +29°C° 0 mm 1 mps 720 mmHg 53%
    06:00 +30°C° 0 mm 1 mps 721 mmHg 53%
    07:00 +30°C° 0 mm 2 mps 722 mmHg 52%
    08:00 +34°C° 0 mm 2 mps 722 mmHg 44%
    09:00 +37°C° 0 mm 2 mps 722 mmHg 36%
    10:00 +41°C° 0 mm 2 mps 722 mmHg 28%
    11:00 +43°C° 0 mm 1 mps 722 mmHg 24%
    12:00 +45°C° 0 mm 1 mps 721 mmHg 20%
    13:00 +47°C° 0 mm 1 mps 720 mmHg 16%
    14:00 +44°C° 0 mm 1 mps 719 mmHg 19%
    15:00 +41°C° 0 mm 1 mps 719 mmHg 22%
    16:00 +37°C° 0 mm 1 mps 718 mmHg 25%
    17:00 +36°C° 0 mm 1 mps 718 mmHg 27%
    18:00 +35°C° 0 mm 1 mps 719 mmHg 29%
    19:00 +32°C° 0 mm 0 mps 719 mmHg 31%
    20:00 +34°C° 0 mm 1 mps 720 mmHg 30%
    21:00 +34°C° 0 mm 1 mps 720 mmHg 30%
    22:00 +34°C° 0 mm 1 mps 721 mmHg 30%
    23:00 +34°C° 0 mm 1 mps 720 mmHg 31%
    Show more